When you browse on this site, cookies collect data to enhance your experience and personalize the content and advertising you see.
Visit our Privacy Policy to learn more. By continuing to use the site, you agree to this use of cookies and data.
  • In Latvia
  • List of Countries
  • For 7 days
  • Water Temperature
  • Weather Map
  • Weather Widgets
  • user-avatar
    Login

    Hourly Weather San Juan

    Today, 13 December, Friday

    Time Temperature Precipitation Wind Pressure Humidity
    00:00 +23°C° 0 mm 1 mps 704 mmHg 22%
    01:00 +20°C° 0 mm 0 mps 704 mmHg 23%
    02:00 +22°C° 0 mm 1 mps 703 mmHg 22%
    03:00 +21°C° 0 mm 2 mps 703 mmHg 21%
    04:00 +20°C° 0 mm 3 mps 702 mmHg 21%
    05:00 +22°C° 0 mm 3 mps 703 mmHg 19%
    06:00 +24°C° 0 mm 3 mps 703 mmHg 17%
    07:00 +26°C° 0 mm 3 mps 704 mmHg 15%
    08:00 +27°C° 0 mm 3 mps 703 mmHg 14%
    09:00 +29°C° 0 mm 3 mps 703 mmHg 14%
    10:00 +30°C° 0 mm 3 mps 703 mmHg 13%
    11:00 +33°C° 0 mm 3 mps 703 mmHg 13%
    12:00 +34°C° 0 mm 3 mps 702 mmHg 12%
    13:00 +35°C° 0 mm 3 mps 702 mmHg 12%
    14:00 +35°C° 0 mm 3 mps 701 mmHg 12%
    15:00 +36°C° 0 mm 3 mps 701 mmHg 11%
    16:00 +36°C° 0 mm 3 mps 701 mmHg 11%
    17:00 +35°C° 0 mm 3 mps 701 mmHg 12%
    18:00 +33°C° 0 mm 3 mps 701 mmHg 13%
    19:00 +31°C° 0 mm 2 mps 702 mmHg 14%
    20:00 +30°C° 0 mm 2 mps 702 mmHg 16%
    21:00 +29°C° 0 mm 2 mps 703 mmHg 18%
    22:00 +28°C° 0 mm 2 mps 703 mmHg 19%
    23:00 +27°C° 0 mm 2 mps 703 mmHg 21%

    Tomorrow, 14 December, Saturday

    Time Temperature Precipitation Wind Pressure Humidity
    00:00 +26°C° 0 mm 1 mps 703 mmHg 23%
    01:00 +26°C° 0 mm 1 mps 703 mmHg 25%
    02:00 +25°C° 0 mm 1 mps 703 mmHg 26%
    03:00 +24°C° 0 mm 1 mps 703 mmHg 28%
    04:00 +24°C° 0 mm 2 mps 703 mmHg 30%
    05:00 +25°C° 0 mm 4 mps 703 mmHg 27%
    06:00 +26°C° 0 mm 6 mps 704 mmHg 25%
    07:00 +28°C° 0 mm 8 mps 704 mmHg 22%
    08:00 +29°C° 0 mm 8 mps 704 mmHg 21%
    09:00 +31°C° 0 mm 8 mps 704 mmHg 20%
    10:00 +32°C° 0 mm 9 mps 703 mmHg 20%
    11:00 +33°C° 0 mm 9 mps 703 mmHg 18%
    12:00 +34°C° 0 mm 9 mps 702 mmHg 17%
    13:00 +35°C° 0 mm 8 mps 702 mmHg 16%
    14:00 +35°C° 0 mm 8 mps 701 mmHg 16%
    15:00 +35°C° 0 mm 7 mps 701 mmHg 16%
    16:00 +35°C° 0 mm 6 mps 701 mmHg 16%
    17:00 +33°C° 0 mm 5 mps 701 mmHg 18%
    18:00 +32°C° 0 mm 5 mps 702 mmHg 19%
    19:00 +30°C° 0 mm 4 mps 702 mmHg 20%
    20:00 +29°C° 0 mm 5 mps 703 mmHg 21%
    21:00 +29°C° 0 mm 5 mps 703 mmHg 23%
    22:00 +28°C° 0 mm 5 mps 704 mmHg 24%
    23:00 +27°C° 0 mm 7 mps 704 mmHg 26%

    Day after tomorrow, 15 December, Sunday

    Time Temperature Precipitation Wind Pressure Humidity
    00:00 +27°C° 0 mm 8 mps 705 mmHg 29%
    01:00 +26°C° 0 mm 9 mps 705 mmHg 32%
    02:00 +24°C° 0 mm 8 mps 705 mmHg 35%
    03:00 +23°C° 0 mm 8 mps 705 mmHg 39%
    04:00 +22°C° 0 mm 7 mps 705 mmHg 42%
    05:00 +23°C° 0 mm 7 mps 706 mmHg 39%
    06:00 +24°C° 0 mm 6 mps 706 mmHg 35%
    07:00 +26°C° 0 mm 6 mps 707 mmHg 31%
    08:00 +28°C° 0 mm 6 mps 707 mmHg 29%
    09:00 +29°C° 0 mm 7 mps 707 mmHg 27%
    10:00 +30°C° 0 mm 7 mps 706 mmHg 25%
    11:00 +32°C° 0 mm 6 mps 706 mmHg 23%
    12:00 +33°C° 0 mm 5 mps 705 mmHg 21%
    13:00 +33°C° 0 mm 5 mps 704 mmHg 19%
    14:00 +34°C° 0 mm 4 mps 704 mmHg 18%
    15:00 +34°C° 0 mm 4 mps 703 mmHg 18%
    16:00 +34°C° 0 mm 4 mps 702 mmHg 17%
    17:00 +33°C° 0 mm 3 mps 702 mmHg 18%
    18:00 +31°C° 0 mm 3 mps 703 mmHg 20%
    19:00 +30°C° 0 mm 2 mps 703 mmHg 21%
    20:00 +29°C° 0 mm 2 mps 703 mmHg 22%
    21:00 +29°C° 0 mm 2 mps 703 mmHg 22%
    22:00 +28°C° 0 mm 2 mps 703 mmHg 23%
    23:00 +28°C° 0 mm 4 mps 703 mmHg 23%

    16 December, Monday

    Time Temperature Precipitation Wind Pressure Humidity
    00:00 +27°C° 0 mm 5 mps 702 mmHg 23%
    01:00 +26°C° 0 mm 7 mps 702 mmHg 23%
    02:00 +26°C° 0 mm 7 mps 702 mmHg 24%
    03:00 +24°C° 0 mm 7 mps 702 mmHg 25%
    04:00 +23°C° 0 mm 8 mps 702 mmHg 26%
    05:00 +24°C° 0 mm 8 mps 702 mmHg 23%
    06:00 +26°C° 0 mm 8 mps 703 mmHg 20%
    07:00 +27°C° 0 mm 8 mps 704 mmHg 16%
    08:00 +28°C° 0 mm 9 mps 704 mmHg 16%
    09:00 +29°C° 0 mm 9 mps 704 mmHg 16%
    10:00 +31°C° 0 mm 9 mps 704 mmHg 15%
    11:00 +32°C° 0 mm 9 mps 704 mmHg 16%
    12:00 +33°C° 0 mm 10 mps 704 mmHg 17%
    13:00 +34°C° 0 mm 10 mps 704 mmHg 18%
    14:00 +34°C° 0 mm 9 mps 703 mmHg 17%
    15:00 +33°C° 0 mm 8 mps 703 mmHg 17%
    16:00 +33°C° 0 mm 7 mps 703 mmHg 16%
    17:00 +32°C° 0 mm 6 mps 703 mmHg 21%
    18:00 +29°C° 0 mm 5 mps 704 mmHg 25%
    19:00 +28°C° 0 mm 4 mps 705 mmHg 30%
    20:00 +27°C° 0 mm 4 mps 705 mmHg 34%
    21:00 +26°C° 0 mm 3 mps 705 mmHg 37%
    22:00 +25°C° 0 mm 2 mps 705 mmHg 41%
    23:00 +24°C° 0 mm 2 mps 705 mmHg 41%

    17 December, Tuesday

    Time Temperature Precipitation Wind Pressure Humidity
    00:00 +24°C° 0 mm 2 mps 704 mmHg 42%
    01:00 +24°C° 0 mm 2 mps 704 mmHg 43%
    02:00 +23°C° 0 mm 2 mps 704 mmHg 45%
    03:00 +23°C° 0 mm 2 mps 704 mmHg 46%
    04:00 +21°C° 0 mm 2 mps 703 mmHg 47%
    05:00 +24°C° 0 mm 3 mps 704 mmHg 42%
    06:00 +26°C° 0 mm 3 mps 704 mmHg 36%
    07:00 +28°C° 0 mm 4 mps 704 mmHg 31%
    08:00 +29°C° 0 mm 5 mps 704 mmHg 27%
    09:00 +32°C° 0 mm 5 mps 704 mmHg 23%
    10:00 +34°C° 0 mm 6 mps 704 mmHg 19%
    11:00 +35°C° 0 mm 7 mps 703 mmHg 17%
    12:00 +36°C° 0 mm 7 mps 702 mmHg 15%
    13:00 +38°C° 0 mm 8 mps 701 mmHg 13%
    14:00 +38°C° 0 mm 8 mps 701 mmHg 12%
    15:00 +37°C° 0 mm 8 mps 700 mmHg 11%
    16:00 +37°C° 0 mm 9 mps 700 mmHg 11%
    17:00 +35°C° 0 mm 8 mps 700 mmHg 12%
    18:00 +33°C° 0 mm 7 mps 700 mmHg 14%
    19:00 +30°C° 0 mm 6 mps 700 mmHg 15%
    20:00 +30°C° 0 mm 5 mps 701 mmHg 17%
    21:00 +29°C° 0 mm 5 mps 701 mmHg 18%
    22:00 +28°C° 0 mm 4 mps 701 mmHg 20%
    23:00 +27°C° 0 mm 3 mps 701 mmHg 22%

    18 December, Wednesday

    Time Temperature Precipitation Wind Pressure Humidity
    00:00 +26°C° 0 mm 3 mps 701 mmHg 24%
    01:00 +26°C° 0 mm 3 mps 700 mmHg 26%
    02:00 +25°C° 0 mm 3 mps 700 mmHg 27%
    03:00 +24°C° 0 mm 2 mps 700 mmHg 29%
    04:00 +24°C° 0 mm 2 mps 700 mmHg 30%
    05:00 +26°C° 0 mm 2 mps 701 mmHg 28%
    06:00 +27°C° 0 mm 2 mps 702 mmHg 26%
    07:00 +29°C° 0 mm 2 mps 702 mmHg 23%
    08:00 +31°C° 0 mm 2 mps 702 mmHg 21%
    09:00 +33°C° 0 mm 3 mps 702 mmHg 19%
    10:00 +35°C° 0 mm 3 mps 701 mmHg 17%
    11:00 +36°C° 0 mm 3 mps 701 mmHg 16%
    12:00 +37°C° 0 mm 3 mps 700 mmHg 15%
    13:00 +38°C° 0 mm 3 mps 700 mmHg 14%
    14:00 +38°C° 0 mm 3 mps 699 mmHg 13%
    15:00 +39°C° 0 mm 3 mps 699 mmHg 12%
    16:00 +40°C° 0 mm 4 mps 699 mmHg 12%
    17:00 +37°C° 0 mm 3 mps 699 mmHg 14%
    18:00 +36°C° 0 mm 3 mps 700 mmHg 16%
    19:00 +34°C° 0 mm 3 mps 700 mmHg 18%
    20:00 +33°C° 0 mm 3 mps 700 mmHg 23%
    21:00 +33°C° 0 mm 3 mps 701 mmHg 27%
    22:00 +31°C° 0 mm 3 mps 701 mmHg 31%
    23:00 +30°C° 0 mm 3 mps 701 mmHg 34%
    Show more